[[{"header":{"parameterUnit":"m.s-1","parameterCategory":1,"la1":30.2991,"la2":30.254,"lo1":-89.0895,"lo2":-89.0444,"dy":0.0017,"dx":0.0017,"nx":28,"ny":28,"refTime":"2024-08-15T03:00:00:Z","depth":0,"parameterNumber":2,"parameterNumberName":"U-component_of_WINDS"},"data":[0,0,0,0,0,0,0,0,0,0,0,0,0,0,0,0,0,0,0,0,0,0,0,0,0,0,0,0,0,0,0,0,0,0,0,0,0,0,0,0,0,0,0,0,0,0,0,0,0,0,0,0,0,0,0,0,0,0,1.1786,1.1787,0,1.1887,1.1888,1.1889,1.1916,1.1915,1.1914,1.1914,1.2019,1.2023,1.2026,0,0,0,0,0,0,0,0,0,0,0,0,0,1.1617,1.162,1.1786,1.1787,1.1788,1.1886,1.1888,1.1889,1.1916,1.1915,1.1914,1.1913,1.2018,1.2022,1.2026,0,0,0,0,0,0,0,0,0,0,0,0,0,1.1702,1.1621,1.1786,1.1813,1.1817,1.1886,1.1888,1.189,1.1916,1.1915,1.1914,1.1913,1.2017,1.2022,1.2027,1.2077,0,0,1.2042,1.2045,0,0,0,0,0,0,0,0,1.1697,1.1708,1.1808,1.1812,1.1816,1.1888,1.1867,1.1952,1.1916,1.1878,1.1914,1.1913,1.1976,1.1985,1.2006,1.2082,1.2086,1.2043,1.2046,1.2048,1.2049,0,0,0,0,0,0,0,1.1691,1.1704,1.1826,1.1809,1.1814,1.1821,1.1832,1.1883,1.1931,1.1882,1.1884,1.1895,1.1978,1.2001,1.2008,1.2088,1.2043,1.2047,1.205,1.2052,1.2207,1.2208,0,0,0,0,0,0,1.168,1.1699,1.1823,1.1829,1.1753,1.1825,1.1837,1.1865,1.1931,1.194,1.1896,1.1896,1.1993,1.2002,1.2012,1.2074,1.2048,1.2053,1.2056,1.2206,1.2207,1.2209,0,0,0,0,0,0,1.1676,1.1691,1.1819,1.1764,1.1781,1.1829,1.186,1.1868,1.189,1.1942,1.195,1.191,1.1992,1.2005,1.206,1.2078,1.2055,1.206,1.2205,1.2207,1.2208,1.2197,0,0,0,0,0,0,1.1671,1.1689,1.1709,1.1765,1.1784,1.1864,1.1861,1.1871,1.1899,1.19,1.1957,1.1966,1.1992,1.2052,1.2065,1.2084,1.2064,1.2204,1.2206,1.2208,1.2196,1.2198,1.22,0,0,0,0,0,1.1665,1.1703,1.171,1.1725,1.1809,1.1865,1.1876,1.1906,1.19,1.192,1.1952,1.1964,1.2073,1.2057,1.2072,1.2093,1.2203,1.2205,1.2207,1.2195,1.2198,1.22,0,0,0,0,0,0,1.1649,1.1711,1.1719,1.1776,1.1815,1.187,1.1896,1.1908,1.195,1.195,1.1985,1.1997,1.2049,1.2077,1.2058,1.2144,1.2138,1.2144,1.2124,1.2127,1.2129,1.2121,1.2068,0,0,0,0,0,1.1652,1.1692,1.1744,1.1789,1.1808,1.1848,1.1874,1.1893,1.1935,1.1952,1.1989,1.203,1.2074,1.2102,1.2145,1.22,1.2212,1.2222,1.2224,1.2225,1.2229,1.2259,1.2263,1.2217,1.2217,1.2217,0,0,1.1659,1.1697,1.1721,1.1786,1.1819,1.186,1.1862,1.1906,1.1936,1.1959,1.2012,1.204,1.2089,1.2143,1.2169,1.2168,1.2245,1.2228,1.2229,1.2233,1.2262,1.2266,1.227,1.2218,1.2218,1.2218,0,0,1.1692,1.1725,1.1765,1.1797,1.1846,1.1872,1.1882,1.1935,1.1954,1.2007,1.2025,1.2062,1.2136,1.217,1.2196,1.2239,1.2251,1.2252,1.2262,1.2291,1.2294,1.2298,1.2312,1.2317,1.2256,1.2256,1.2256,0,1.1694,1.1756,1.1785,1.1827,1.1855,1.1876,1.1916,1.1946,1.2007,1.2026,1.2023,1.2116,1.215,1.2212,1.2222,1.2243,1.2254,1.2246,1.2291,1.2295,1.2299,1.2313,1.2318,1.2256,1.2256,1.2256,1.2256,0,1.1756,1.1798,1.1825,1.1881,1.1912,1.1954,1.1988,1.2016,1.2032,1.2058,1.2112,1.2153,1.2204,1.222,1.2236,1.2284,1.2281,1.2284,1.2279,1.2302,1.2316,1.2322,1.2255,1.2256,1.2256,1.2256,0,0,1.1783,1.1853,1.1863,1.1888,1.1942,1.1975,1.2017,1.2065,1.2088,1.2129,1.2164,1.2225,1.2228,1.2258,1.2278,1.2303,1.2333,1.2303,1.2305,1.2307,1.2386,1.2383,1.2389,1.234,1.2341,1.2342,1.2382,0,1.1822,1.1897,1.1923,1.1985,1.2023,1.2043,1.2079,1.2116,1.2141,1.2178,1.2206,1.2248,1.2249,1.2267,1.2292,1.2324,1.2349,1.2321,1.2374,1.2375,1.2361,1.2396,1.2394,1.2429,1.2387,1.2388,1.2389,0,1.1879,1.1918,1.1983,1.2031,1.2048,1.208,1.2125,1.216,1.2202,1.2219,1.2251,1.2268,1.2312,1.2304,1.2364,1.2344,1.2367,1.2385,1.2387,1.2394,1.2383,1.2403,1.2441,1.2446,1.2398,1.2397,1.2396,0,1.1891,1.1961,1.2008,1.2029,1.2086,1.2108,1.2133,1.2173,1.22,1.224,1.2258,1.2302,1.2327,1.2361,1.239,1.2381,1.2447,1.2441,1.2461,1.2461,1.2475,1.2474,1.2517,1.249,1.249,1.249,1.2489,0,1.1932,1.1971,1.2014,1.2043,1.2087,1.2116,1.2158,1.2185,1.222,1.2255,1.2274,1.2306,1.2342,1.2379,1.2402,1.2447,1.2458,1.2473,1.2478,1.2471,1.2469,1.2486,1.2485,1.2491,1.2491,1.249,1.249,0,1.1953,1.1984,1.2037,1.2085,1.2099,1.2128,1.217,1.2199,1.2224,1.2267,1.2279,1.2319,1.2362,1.2394,1.2451,1.2466,1.2515,1.2521,1.25,1.2503,1.2521,1.2519,1.2577,1.2585,1.2553,1.2553,1.2553,0,1.1978,1.2008,1.2059,1.2083,1.2107,1.2146,1.2172,1.2202,1.2229,1.2278,1.2301,1.2345,1.2382,1.2451,1.2485,1.2528,1.2535,1.2552,1.2541,1.2532,1.2534,1.2532,1.2534,1.2554,1.2554,1.2554,1.2554,0,1.2017,1.203,1.2068,1.211,1.2141,1.2176,1.2212,1.223,1.2266,1.2296,1.234,1.2368,1.2425,1.2469,1.2514,1.254,1.2553,1.2557,1.2564,1.2557,1.2543,1.255,1.2504,1.2556,1.2556,1.2555,1.2555,1.2555,1.204,1.2067,1.2107,1.2148,1.2177,1.2209,1.2238,1.2266,1.2303,1.2351,1.2366,1.2411,1.2451,1.2513,1.2539,1.2575,1.2574,1.2584,1.2587,1.2589,1.2588,1.2537,1.2583,1.2583,1.2583,1.2583,1.2583,0,1.208,1.2106,1.2143,1.2191,1.2223,1.2231,1.227,1.2296,1.2335,1.2371,1.2406,1.2456,1.2498,1.2534,1.2577,1.2599,1.2606,1.2609,1.2608,1.2613,1.2586,1.2576,1.2603,1.2603,1.2603,1.2603,1.2603,1.2603,1.2104,1.215,1.2167,1.2227,1.2253,1.2297,1.2318,1.2347,1.2376,1.243,1.2464,1.2487,1.2523,1.2568,1.2607,1.2616,1.2631,1.2633,1.2644,1.2618,1.2616,1.2613,1.2603,1.2636,1.2636,1.2668,1.2668,1.2668]},{"header":{"parameterUnit":"m.s-1","parameterCategory":1,"la1":30.2991,"la2":30.254,"lo1":-89.0895,"lo2":-89.0444,"dy":0.0017,"dx":0.0017,"nx":28,"ny":28,"refTime":"2024-08-15T03:00:00:Z","depth":0,"parameterNumber":3,"parameterNumberName":"V-component_of_WINDS"},"data":[0,0,0,0,0,0,0,0,0,0,0,0,0,0,0,0,0,0,0,0,0,0,0,0,0,0,0,0,0,0,0,0,0,0,0,0,0,0,0,0,0,0,0,0,0,0,0,0,0,0,0,0,0,0,0,0,0,0,2.9052,2.9052,0,2.9051,2.9051,2.9051,2.9088,2.9089,2.909,2.909,2.9087,2.9086,2.9085,0,0,0,0,0,0,0,0,0,0,0,0,0,2.908,2.908,2.9052,2.9052,2.9052,2.9051,2.9051,2.9051,2.9087,2.9089,2.909,2.9091,2.9087,2.9086,2.9084,0,0,0,0,0,0,0,0,0,0,0,0,0,2.9072,2.9079,2.9052,2.907,2.9071,2.9051,2.9051,2.9051,2.9087,2.9089,2.909,2.9091,2.9087,2.9086,2.9084,2.9046,0,0,2.908,2.9079,0,0,0,0,0,0,0,0,2.9073,2.9071,2.9067,2.9069,2.907,2.9071,2.906,2.9049,2.9087,2.9081,2.909,2.9092,2.908,2.9079,2.9076,2.9045,2.9045,2.908,2.9079,2.9078,2.9078,0,0,0,0,0,0,0,2.9073,2.9072,2.9051,2.9067,2.9069,2.9077,2.9077,2.9058,2.9072,2.9082,2.9084,2.9084,2.9081,2.9077,2.9076,2.9045,2.908,2.9078,2.9077,2.9077,2.898,2.8978,0,0,0,0,0,0,2.9072,2.9072,2.9051,2.9051,2.9075,2.9075,2.9076,2.9069,2.9073,2.9075,2.9083,2.9086,2.9079,2.9078,2.9076,2.9028,2.9078,2.9077,2.9076,2.8982,2.8979,2.8978,0,0,0,0,0,0,2.9072,2.907,2.9051,2.9062,2.9061,2.9073,2.9065,2.9068,2.9064,2.9073,2.9076,2.9076,2.908,2.9078,2.9052,2.9029,2.9076,2.9074,2.8983,2.8981,2.8979,2.8934,0,0,0,0,0,0,2.9073,2.907,2.9056,2.9062,2.906,2.9029,2.9064,2.9067,2.9062,2.9066,2.9068,2.907,2.9081,2.9054,2.9051,2.9027,2.9073,2.8986,2.8982,2.8979,2.8938,2.893,2.8924,0,0,0,0,0,2.9074,2.9044,2.9055,2.9053,2.9043,2.9028,2.9026,2.9041,2.906,2.9046,2.9051,2.9069,2.9032,2.9052,2.9048,2.9024,2.8987,2.8983,2.898,2.8941,2.8932,2.8924,0,0,0,0,0,0,2.9034,2.9045,2.9058,2.9029,2.9027,2.9034,2.9016,2.9032,2.9024,2.9028,2.9046,2.9046,2.9016,2.9018,2.9039,2.8985,2.9013,2.9008,2.8985,2.8976,2.897,2.8969,2.9072,0,0,0,0,0,2.9022,2.901,2.9019,2.8992,2.8991,2.9004,2.8997,2.9009,2.9007,2.9007,2.901,2.9007,2.8995,2.8986,2.8975,2.8939,2.8938,2.892,2.8913,2.8908,2.8903,2.8881,2.8872,2.8965,2.8965,2.8966,0,0,2.8996,2.9001,2.8992,2.8984,2.8985,2.8969,2.9003,2.8986,2.8974,2.9004,2.8979,2.8982,2.8979,2.8947,2.8934,2.8948,2.8877,2.8903,2.8899,2.8897,2.8876,2.8867,2.8859,2.8963,2.8963,2.8964,0,0,2.8942,2.8945,2.8922,2.8921,2.8921,2.893,2.8924,2.8929,2.8931,2.8908,2.8928,2.8915,2.8893,2.889,2.8885,2.8828,2.8844,2.8824,2.8788,2.8766,2.8759,2.8752,2.8729,2.8721,2.882,2.882,2.882,0,2.891,2.8889,2.8908,2.8889,2.8884,2.8911,2.8886,2.8885,2.8881,2.8876,2.8892,2.8865,2.8865,2.8831,2.8817,2.8814,2.8806,2.8823,2.8759,2.8752,2.8746,2.8724,2.8716,2.8817,2.8817,2.8818,2.8818,0,2.8848,2.8834,2.8815,2.881,2.8804,2.8782,2.8796,2.8786,2.8798,2.8804,2.8778,2.878,2.8768,2.8762,2.8773,2.8729,2.8737,2.8756,2.8784,2.8735,2.8714,2.8706,2.8813,2.8814,2.8815,2.8816,0,0,2.8767,2.8774,2.8766,2.8763,2.8765,2.8753,2.8732,2.8722,2.8712,2.8708,2.8689,2.867,2.8687,2.8682,2.8693,2.8674,2.8625,2.8695,2.8695,2.8679,2.8572,2.8556,2.8546,2.8637,2.8635,2.8634,2.8572,0,2.8712,2.8677,2.8693,2.8655,2.864,2.8666,2.8647,2.8645,2.865,2.8636,2.8642,2.8627,2.8652,2.8648,2.8631,2.8635,2.8603,2.864,2.8616,2.8615,2.8613,2.8536,2.8519,2.8461,2.8564,2.8563,2.8562,0,2.8643,2.8636,2.8598,2.86,2.8595,2.8577,2.8568,2.8556,2.8554,2.8558,2.8552,2.8567,2.8544,2.8574,2.8541,2.8565,2.8557,2.8557,2.8555,2.8551,2.8583,2.8527,2.8443,2.8432,2.855,2.8551,2.8552,0,2.8584,2.8566,2.854,2.8537,2.854,2.8527,2.8528,2.8527,2.8519,2.8511,2.8505,2.8494,2.8487,2.8477,2.8488,2.8509,2.8452,2.8483,2.8453,2.8452,2.8438,2.8438,2.8347,2.8437,2.8437,2.8437,2.8437,0,2.8519,2.8494,2.8513,2.8497,2.8468,2.8486,2.8456,2.8459,2.8458,2.8441,2.8463,2.8446,2.8463,2.8447,2.8455,2.8425,2.8422,2.8423,2.8425,2.842,2.8419,2.8412,2.8415,2.8435,2.8435,2.8436,2.8436,0,2.8448,2.846,2.8433,2.8438,2.8439,2.8417,2.8421,2.8404,2.8411,2.8389,2.8385,2.8395,2.8377,2.8387,2.8369,2.8375,2.8334,2.8343,2.8335,2.8336,2.8304,2.8306,2.8203,2.8189,2.8291,2.829,2.8289,0,2.8404,2.8385,2.8388,2.8379,2.8378,2.8363,2.8355,2.8372,2.8362,2.8357,2.834,2.8325,2.8313,2.8283,2.8287,2.8273,2.8279,2.8245,2.8277,2.8271,2.8275,2.8275,2.8272,2.8237,2.8236,2.8235,2.8234,0,2.8324,2.8331,2.832,2.831,2.83,2.8293,2.8287,2.8278,2.8294,2.8282,2.8265,2.8255,2.8237,2.8219,2.8207,2.8205,2.8221,2.8224,2.8216,2.8209,2.8203,2.8203,2.8314,2.8226,2.8227,2.8227,2.8228,2.8228,2.8263,2.8247,2.8246,2.8232,2.823,2.8223,2.8208,2.8213,2.8199,2.8185,2.8196,2.8174,2.817,2.8155,2.8151,2.8133,2.8146,2.8135,2.8131,2.8127,2.8122,2.8209,2.8131,2.8131,2.8131,2.8131,2.8132,0,2.8182,2.8183,2.817,2.8162,2.815,2.8168,2.8162,2.815,2.8132,2.8127,2.8115,2.8093,2.8077,2.808,2.8064,2.8048,2.8055,2.8043,2.8043,2.8042,2.8112,2.8119,2.8038,2.8038,2.8038,2.8038,2.8038,2.8038,2.8138,2.811,2.8117,2.8087,2.8088,2.8067,2.8062,2.8056,2.8052,2.8027,2.8014,2.8016,2.8014,2.7998,2.7982,2.7983,2.7975,2.796,2.7963,2.8028,2.8037,2.8046,2.8053,2.7959,2.7959,2.7894,2.7893,2.7893]}]]